Time,TemperatureF,DewpointF,PressureIn,WindDirection,WindDirectionDegrees,WindSpeedMPH,WindSpeedGustMPH,Humidity,HourlyPrecipIn,Conditions,Clouds,dailyrainin,SoftwareType,DateUTC
2013-03-29 17:42:00,50.7,24.0,30.09,North,0,3.5,0.0,35,0.00,CLR,,0.00,WeatherDisplay:10.37,2013-03-29 21:42:00,
2013-03-29 17:44:00,50.7,24.0,30.09,West,270,3.5,0.0,35,0.00,CLR,,0.00,WeatherDisplay:10.37,2013-03-29 21:44:00,
2013-03-29 17:46:00,50.7,24.0,30.10,North,0,0.0,0.0,35,0.00,CLR,,0.00,WeatherDisplay:10.37,2013-03-29 21:46:00,
2013-03-29 17:48:00,51.3,24.5,30.10,North,0,5.8,5.8,35,0.00,CLR,,0.00,WeatherDisplay:10.37,2013-03-29 21:48:00,
2013-03-29 17:53:00,50.9,24.9,30.10,NNW,337,5.8,5.8,36,0.00,CLR,,0.00,WeatherDisplay:10.37,2013-03-29 21:53:00,
2013-03-29 17:58:00,50.5,24.5,30.10,NNW,337,5.8,5.8,36,0.00,CLR,,0.00,WeatherDisplay:10.37,2013-03-29 21:58:00,
2013-03-29 18:03:00,50.5,24.5,30.10,WNW,292,5.8,5.8,36,0.00,CLR,,0.00,WeatherDisplay:10.37,2013-03-29 22:03:00,
2013-03-29 18:08:00,50.5,24.5,30.10,SW,225,5.8,5.8,36,0.00,CLR,,0.00,WeatherDisplay:10.37,2013-03-29 22:08:00,
2013-03-29 18:13:00,51.8,26.3,30.10,West,270,5.8,5.8,37,0.00,CLR,,0.00,WeatherDisplay:10.37,2013-03-29 22:13:00,
2013-03-29 18:18:00,52.0,25.8,30.10,NNW,337,5.8,5.8,36,0.00,CLR,,0.00,WeatherDisplay:10.37,2013-03-29 22:18:00,
2013-03-29 18:23:00,51.6,25.5,30.10,West,270,5.8,5.8,36,0.00,CLR,,0.00,WeatherDisplay:10.37,2013-03-29 22:23:00,
2013-03-29 18:28:00,51.6,25.5,30.10,WSW,247,5.8,5.8,36,0.00,CLR,,0.00,WeatherDisplay:10.37,2013-03-29 22:28:00,
2013-03-29 18:33:00,51.6,25.5,30.10,WNW,292,5.8,5.8,36,0.00,CLR,,0.00,WeatherDisplay:10.37,2013-03-29 22:33:00,
2013-03-29 18:38:00,50.4,24.4,30.10,SW,225,5.8,5.8,36,0.00,CLR,,0.00,WeatherDisplay:10.37,2013-03-29 22:38:00,
2013-03-29 18:43:00,49.6,23.7,30.10,WSW,247,5.8,5.8,36,0.00,CLR,,0.00,WeatherDisplay:10.37,2013-03-29 22:43:00,
2013-03-29 18:48:00,49.1,23.3,30.10,WNW,292,5.8,5.8,36,0.00,CLR,,0.00,WeatherDisplay:10.37,2013-03-29 22:48:00,
2013-03-29 18:53:00,49.1,22.6,30.11,WSW,247,5.8,5.8,35,0.00,CLR,,0.00,WeatherDisplay:10.37,2013-03-29 22:53:00,
2013-03-29 18:58:00,48.9,22.4,30.10,West,270,5.8,5.8,35,0.00,CLR,,0.00,WeatherDisplay:10.37,2013-03-29 22:58:00,
2013-03-29 19:03:00,48.9,22.4,30.11,WSW,247,5.8,5.8,35,0.00,CLR,,0.00,WeatherDisplay:10.37,2013-03-29 23:03:00,
2013-03-29 19:09:00,48.9,22.4,30.11,WNW,292,5.8,5.8,35,0.00,CLR,,0.00,WeatherDisplay:10.37,2013-03-29 23:09:00,
2013-03-29 19:14:00,48.2,21.8,30.12,WNW,292,3.5,3.5,35,0.00,CLR,,0.00,WeatherDisplay:10.37,2013-03-29 23:14:00,
2013-03-29 19:19:00,48.2,21.8,30.12,West,270,3.5,3.5,35,0.00,CLR,,0.00,WeatherDisplay:10.37,2013-03-29 23:19:00,
2013-03-29 19:24:00,48.2,21.8,30.11,West,270,3.5,3.5,35,0.00,CLR,,0.00,WeatherDisplay:10.37,2013-03-29 23:24:00,
2013-03-29 19:29:00,47.5,20.5,30.10,WNW,292,3.5,3.5,34,0.00,CLR,,0.00,WeatherDisplay:10.37,2013-03-29 23:29:00,
2013-03-29 19:34:00,47.1,20.2,30.12,WNW,292,3.5,3.5,34,0.00,CLR,,0.00,WeatherDisplay:10.37,2013-03-29 23:34:00,
2013-03-29 19:39:00,47.1,20.2,30.11,West,270,3.5,3.5,34,0.00,CLR,,0.00,WeatherDisplay:10.37,2013-03-29 23:39:00,
2013-03-29 19:44:00,46.6,19.7,30.12,NW,315,3.5,0.0,34,0.00,CLR,,0.00,WeatherDisplay:10.37,2013-03-29 23:44:00,
2013-03-29 19:49:00,46.2,19.4,30.11,WNW,292,3.5,3.5,34,0.00,CLR,,0.00,WeatherDisplay:10.37,2013-03-29 23:49:00,
2013-03-29 19:54:00,46.0,19.2,30.12,WNW,292,3.5,3.5,34,0.00,CLR,,0.00,WeatherDisplay:10.37,2013-03-29 23:54:00,
2013-03-29 19:59:00,45.7,18.9,30.12,WNW,292,3.5,3.5,34,0.00,CLR,,0.00,WeatherDisplay:10.37,2013-03-29 23:59:00,
2013-03-29 20:04:00,45.3,18.6,30.12,West,270,3.5,3.5,34,0.00,CLR,,0.00,WeatherDisplay:10.37,2013-03-30 00:04:00,
2013-03-29 20:09:00,45.1,18.4,30.12,West,270,3.5,3.5,34,0.00,CLR,,0.00,WeatherDisplay:10.37,2013-03-30 00:09:00,
2013-03-29 20:14:00,45.0,18.2,30.11,SW,225,0.3,0.0,34,0.00,CLR,,0.00,WeatherDisplay:10.37,2013-03-30 00:14:00,
2013-03-29 20:19:00,44.4,17.8,30.11,SW,225,0.3,0.0,34,0.00,CLR,,0.00,WeatherDisplay:10.37,2013-03-30 00:19:00,
2013-03-29 20:24:00,43.9,16.6,30.10,SW,225,0.3,0.0,33,0.00,CLR,,0.00,WeatherDisplay:10.37,2013-03-30 00:24:00,
2013-03-29 20:29:00,43.7,16.4,30.09,SSW,202,0.3,0.0,33,0.00,CLR,,0.00,WeatherDisplay:10.37,2013-03-30 00:29:00,
2013-03-29 20:34:00,43.7,16.4,30.09,SSW,202,0.3,0.0,33,0.00,CLR,,0.00,WeatherDisplay:10.37,2013-03-30 00:34:00,
2013-03-29 20:39:00,43.5,16.3,30.09,SSW,202,0.3,0.0,33,0.00,CLR,,0.00,WeatherDisplay:10.37,2013-03-30 00:39:00,
2013-03-29 20:44:00,43.5,16.3,30.09,SSW,202,0.3,0.0,33,0.00,CLR,,0.00,WeatherDisplay:10.37,2013-03-30 00:44:00,
2013-03-29 20:49:00,43.2,16.0,30.10,SSW,202,0.3,0.0,33,0.00,CLR,,0.00,WeatherDisplay:10.37,2013-03-30 00:49:00,
2013-03-29 20:54:00,42.8,16.3,30.10,SSW,202,0.3,0.0,34,0.00,CLR,,0.00,WeatherDisplay:10.37,2013-03-30 00:54:00,
2013-03-29 20:59:00,42.6,16.2,30.10,SSW,202,0.3,0.0,34,0.00,CLR,,0.00,WeatherDisplay:10.37,2013-03-30 00:59:00,
2013-03-29 21:04:00,41.7,15.4,30.11,SSW,202,0.3,0.0,34,0.00,CLR,,0.00,WeatherDisplay:10.37,2013-03-30 01:04:00,
2013-03-29 21:09:00,41.4,15.1,30.11,SSW,202,0.0,0.0,34,0.00,CLR,,0.00,WeatherDisplay:10.37,2013-03-30 01:09:00,
2013-03-29 21:14:00,41.0,14.7,30.11,SSW,202,0.0,0.0,34,0.00,CLR,CLR,0.00,WeatherDisplay:10.37,2013-03-30 01:14:00,
2013-03-29 21:19:00,40.8,15.2,30.11,SSW,202,0.0,0.0,35,0.00,CLR,CLR,0.00,WeatherDisplay:10.37,2013-03-30 01:19:00,
2013-03-29 21:24:00,40.6,15.1,30.11,SSW,202,0.0,0.0,35,0.00,CLR,CLR,0.00,WeatherDisplay:10.37,2013-03-30 01:24:00,
2013-03-29 21:29:00,40.3,14.8,30.11,SSW,202,0.0,0.0,35,0.00,CLR,CLR,0.00,WeatherDisplay:10.37,2013-03-30 01:29:00,
2013-03-29 21:34:00,40.3,14.8,30.11,SSW,202,0.0,0.0,35,0.00,CLR,CLR,0.00,WeatherDisplay:10.37,2013-03-30 01:34:00,
2013-03-29 21:39:00,39.7,14.3,30.11,SSW,202,0.0,0.0,35,0.00,CLR,CLR,0.00,WeatherDisplay:10.37,2013-03-30 01:39:00,
2013-03-29 21:44:00,39.7,14.9,30.12,SSW,202,0.0,0.0,36,0.00,CLR,CLR,0.00,WeatherDisplay:10.37,2013-03-30 01:44:00,
2013-03-29 21:49:00,39.4,14.6,30.11,SSW,202,0.0,0.0,36,0.00,CLR,CLR,0.00,WeatherDisplay:10.37,2013-03-30 01:49:00,
2013-03-29 21:54:00,39.2,14.4,30.12,SSW,202,0.0,0.0,36,0.00,CLR,CLR,0.00,WeatherDisplay:10.37,2013-03-30 01:54:00,
2013-03-29 21:59:00,39.2,14.4,30.11,SSW,202,0.0,0.0,36,0.00,CLR,CLR,0.00,WeatherDisplay:10.37,2013-03-30 01:59:00,
2013-03-29 22:04:00,38.4,13.7,30.12,SSW,202,0.0,0.0,36,0.00,CLR,CLR,0.00,WeatherDisplay:10.37,2013-03-30 02:04:00,
2013-03-29 22:09:00,38.1,14.1,30.11,SSW,202,0.0,0.0,37,0.00,CLR,CLR,0.00,WeatherDisplay:10.37,2013-03-30 02:09:00,
2013-03-29 22:15:00,38.1,14.1,30.12,SSW,202,0.0,0.0,37,0.00,CLR,CLR,0.00,WeatherDisplay:10.37,2013-03-30 02:15:00,
2013-03-29 22:20:00,37.8,13.8,30.11,SSW,202,0.0,0.0,37,0.00,CLR,,0.00,WeatherDisplay:10.37,2013-03-30 02:20:00,
2013-03-29 22:25:00,37.6,13.0,30.09,SSW,202,0.0,0.0,36,0.00,CLR,,0.00,WeatherDisplay:10.37,2013-03-30 02:25:00,
2013-03-29 22:30:00,37.2,12.7,30.08,SSW,202,0.0,0.0,36,0.00,CLR,,0.00,WeatherDisplay:10.37,2013-03-30 02:30:00,
2013-03-29 22:35:00,36.9,12.4,30.13,SSW,202,0.0,0.0,36,0.00,CLR,,0.00,WeatherDisplay:10.37,2013-03-30 02:35:00,
2013-03-29 22:40:00,36.7,11.6,30.11,SSW,202,0.0,0.0,35,0.00,CLR,,0.00,WeatherDisplay:10.37,2013-03-30 02:40:00,
2013-03-29 22:45:00,36.7,11.6,30.10,SSW,202,0.0,0.0,35,0.00,CLR,,0.00,WeatherDisplay:10.37,2013-03-30 02:45:00,
2013-03-29 22:50:00,36.5,11.4,30.10,SSW,202,0.0,0.0,35,0.00,CLR,,0.00,WeatherDisplay:10.37,2013-03-30 02:50:00,
2013-03-29 22:55:00,36.5,11.4,30.09,SSW,202,0.0,0.0,35,0.00,CLR,,0.00,WeatherDisplay:10.37,2013-03-30 02:55:00,
2013-03-29 23:00:00,36.3,11.2,30.09,SSW,202,0.0,0.0,35,0.00,CLR,,0.00,WeatherDisplay:10.37,2013-03-30 03:00:00,
2013-03-29 23:05:00,36.3,11.2,30.10,SSW,202,0.0,0.0,35,0.00,CLR,,0.00,WeatherDisplay:10.37,2013-03-30 03:05:00,
2013-03-29 23:10:00,35.8,10.8,30.10,SSW,202,0.0,0.0,35,0.00,CLR,,0.00,WeatherDisplay:10.37,2013-03-30 03:10:00,
2013-03-29 23:15:00,35.4,10.4,30.10,SSW,202,0.0,0.0,35,0.00,CLR,,0.00,WeatherDisplay:10.37,2013-03-30 03:15:00,
2013-03-29 23:20:00,35.4,10.4,30.10,SSW,202,0.0,0.0,35,0.00,CLR,,0.00,WeatherDisplay:10.37,2013-03-30 03:20:00,
2013-03-29 23:25:00,34.9,10.0,30.10,SSW,202,0.0,0.0,35,0.00,CLR,,0.00,WeatherDisplay:10.37,2013-03-30 03:25:00,
2013-03-29 23:30:00,34.9,10.0,30.08,SSW,202,0.0,0.0,35,0.00,CLR,,0.00,WeatherDisplay:10.37,2013-03-30 03:30:00,
2013-03-29 23:35:00,34.2,9.3,30.08,SSW,202,2.4,2.4,35,0.00,CLR,,0.00,WeatherDisplay:10.37,2013-03-30 03:35:00,
2013-03-29 23:40:00,34.0,9.2,30.07,SSE,157,2.4,0.0,35,0.00,CLR,,0.00,WeatherDisplay:10.37,2013-03-30 03:40:00,
2013-03-29 23:45:00,33.4,8.7,30.07,SSE,157,2.4,0.0,35,0.00,CLR,,0.00,WeatherDisplay:10.37,2013-03-30 03:45:00,
2013-03-29 23:50:00,33.4,8.7,30.08,SSE,157,2.4,0.0,35,0.00,CLR,,0.00,WeatherDisplay:10.37,2013-03-30 03:50:00,
2013-03-29 23:55:00,33.4,8.0,30.08,SSE,157,2.4,0.0,34,0.00,CLR,,0.00,WeatherDisplay:10.37,2013-03-30 03:55:00,